Погода в Лусаке

Замбия     15°23′44″S   28°19′48″E
темп.,
°C
ветер,
м/с
пор.,
м/с
влажн.,
%
обл.,
%
осадки,
мм/ч
давл.,
гПа
погр.,
м
18 мая, вт
вт1823:00+17в225839 0.0 101838
02:00+17в236014 0.0 101747
05:00+16в23640 0.0 101849
08:00+20вюв39510 0.0 1020593
11:00+25в58320 0.0 10192132
14:00+27в57270 0.0 10162414
17:00+24в47340 0.0 10161013
20:00+19в410430 0.0 1020340
19 мая, ср
ср1923:00+18всв413350 0.0 1019456
02:00+17всв514391 0.0 1018502
05:00+15в5145583 0.0 1019591
08:00+17в6136148 0.0 1021685
11:00+24в69335 0.0 10201534
14:00+26в57235 0.0 10162088
17:00+23в47340 0.0 1016768
20:00+17в39540 0.0 1019259
20 мая, чт
чт2023:00+16всв310560 0.0 1019224
02:00+14в39670 0.0 1019200
05:00+13всв310700 0.0 1019223
08:00+17в410660 0.0 1020483
11:00+24всв45385 0.0 10191481
14:00+26в34295 0.0 10152175
17:00+24юв46395 0.0 1015684
20:00+17в37610 0.0 1018165
21 мая, пт
пт2123:00+16всв24640 0.0 101981
02:00+15в24585 0.0 101854
05:00+15всв35625 0.0 101980
08:00+19всв36460 0.0 1019240
11:00+25в34290 0.0 10191827
14:00+28юв33240 0.0 10152301
17:00+24юв46330 0.0 1016445
20:00+18в36490 0.0 1019138
22 мая, сб
сб2223:00+17всв22530 0.0 101934
02:00+16всв22530 0.0 101823
05:00+15вюв24570 0.0 101953
08:00+20вюв36460 0.0 1020236
11:00+26в46310 0.0 10191857
14:00+28вюв45240 0.0 10162705
17:00+24юв47330 0.0 1017939
20:00+19в410460 0.0 1020310